Regional Weather Roundup
Issued by NWS

Home | Current Version | Previous Version | Text Only | Print | Product List | Glossary Off
Versions: 1 2 3 4 5 6 7 8 9 10 11 12 13 14 15 16 17 18 19 20 21 22 23 24 25 26 27 28 29 30 31 32 33 34 35 36 37 38 39 40 41 42 43 44 45 46 47 48 49 50

000
ASUS45 KTFX 251010
RWRMT
MONTANA REGIONAL WEATHER ROUNDUP
NATIONAL WEATHER SERVICE GREAT FALLS MT
400 AM MDT SAT MAR 25 2017

NOTE: "FAIR" INDICATES FEW OR NO CLOUDS BELOW 12000 FEET WITH NO
SIGNIFICANT WEATHER AND/OR OBSTRUCTIONS TO VISIBILITY.

MTZ001>007-043-251100-
WEST OF THE DIVIDE

CITY           SKY/WX    TMP DP  RH WIND       PRES   REMARKS
KALISPELL      CLOUDY    40  30  67 S9        29.98R
MISSOULA       CLOUDY    42  32  67 CALM      30.04R
BUTTE          LGT RAIN  36  30  79 NW14G22   29.99R WCI  27
MULLAN PASS    CLOUDY    28  28 100 SW8       29.96S WCI  20
ANACONDA         N/A     36  27  69 NW6       30.00R WCI  31
DEER LODGE       N/A     36  30  80 NW12G17   30.02R WCI  27
EUREKA           N/A     43  28  56 E6        29.96R
HAMILTON         N/A     39  27  60 CALM      30.04S
PLAINS           N/A     38  29  70 CALM      30.02
RONAN            N/A     42  30  62 E3        30.06R
$$

MTZ008-052>055-251100-
SOUTHWEST MONTANA

CITY           SKY/WX    TMP DP  RH WIND       PRES   REMARKS
BOZEMAN        LGT RAIN  40  38  93 NW8       29.97R
DILLON         PTCLDY    38  33  82 S10       29.96S WCI  31
W YELLOWSTONE  LGT SNOW  32  32 100 N5        30.01F
ENNIS          CLOUDY    37  36  93 E5        30.04R FOG
$$

MTZ009-010-012-014-046-048-049-054-251100-
EAST SLOPES AND CENTRAL MONTANA

CITY           SKY/WX    TMP DP  RH WIND       PRES   REMARKS
CUT BANK       MOCLDY    39  25  57 W30G40    29.80R WCI  27
GREAT FALLS    CLOUDY    43  30  60 SW14      29.89R
MALMSTROM AFB  CLOUDY    45  31  56 SW18      29.88R
HELENA         MOCLDY    42  36  79 NW7       29.96R
AUGUSTA          N/A     40  21  47 W18G24    29.89R
BOWMANS CRNR   MOCLDY    39  22  50 W7        29.90R
CHOTEAU          N/A     36  25  64 S6        29.89S WCI  31
CONRAD           N/A     42  28  58 SW17      29.86F
FAIRFIELD      MOCLDY    40  25  55 W8        29.88R
POWER          MOCLDY    39  29  68 W10       29.87R
RAYNESFORD     MOCLDY    44  29  54 W13       29.89R
$$

MTZ011-013-016-021-045-047-050-051-251100-
NORTH CENTRAL MONTANA

CITY           SKY/WX    TMP DP  RH WIND       PRES   REMARKS
HAVRE          CLEAR     43  33  68 SW17      29.80R
LEWISTOWN      CLOUDY    46  30  53 W22G28    29.87S
N BAR RANCH    MOCLDY    45  28  53 NW15      29.89R
CHINOOK          N/A     45  32  61 W10       29.80R
DENTON         CLOUDY    46  31  56 W23G29    29.82S
GEYSER         MOCLDY    43  29  58 W17       29.87R
GRASS RANGE    MOCLDY    46  33  59 W20       29.84R
STANFORD       MOCLDY    41  31  68 W15       29.88S
WINIFRED       MOCLDY    47  30  50 W21G29    29.84R
$$

MTZ017>020-022>027-061-062-251100-
NORTHEAST MONTANA

CITY           SKY/WX    TMP DP  RH WIND       PRES   REMARKS
GLASGOW        MOCLDY    47  32  56 NW10      29.76R
JORDAN           N/A     44  34  67 NW7       29.80R
SIDNEY         CLOUDY    45  34  65 S8        29.82F
WOLF POINT     CLOUDY    47  35  63 CALM      29.77S
MALTA          CLEAR     43  32  65 W8        29.78R
PLENTYWOOD       N/A     43  34  70 SE16      29.79F
POPLAR           N/A     48  34  57 S5        29.79S
SCOBEY           N/A     44  26  49 SE13      29.76
$$

MTZ028>42-056>058-251100-
SOUTHCENTRAL AND SOUTHEAST MONTANA

CITY           SKY/WX    TMP DP  RH WIND       PRES   REMARKS
BAKER          PTCLDY    43  32  65 S5        29.87R
BILLINGS       CLOUDY    51  28  41 SW14      29.84S
LIVINGSTON     CLOUDY    49  30  48 W23       29.88R
MILES CITY     CLOUDY    49  32  52 S12       29.82R
BIG TIMBER     CLOUDY    50  30  46 W17G29    29.90R
EKALAKA          N/A     47  28  47 SE15      29.84
FORSYTH          N/A     50  36  57 CALM      29.81S
HARLOWTON      MOCLDY    44  35  72 W30G39    29.91R
LAUREL           N/A     47  27  46 CALM      29.85S
$$

REGIONAL REPORTS...DAKOTAS

CITY           SKY/WX    TMP DP  RH WIND       PRES   REMARKS
WILLISTON      CLOUDY    43  32  65 VRB7G17   29.84F
MINOT          CLOUDY    32  30  92 SE13      29.99F WCI  22
DICKINSON      CLOUDY    34  30  85 S23G32    29.89F WCI  22
BEACH            N/A    N/A N/A N/A MISG        N/A
TIOGA            N/A     34  34 100 SE17G24   29.89F WCI  23
WATFORD CITY     N/A     41  32  70 SE12G18   29.86F
BISMARCK       CLOUDY    31  30  96 SE12      30.07F FOG     WCI  22
GRAND FORKS    CLEAR     26  26 100 E3        30.17S
FARGO          CLEAR     29  28  96 SE5       30.17F
BUFFALO SD       N/A     39  31  72 S10       29.84R
RAPID CITY     CLOUDY    36  28  73 S14       29.97F WCI  27
$$

REGIONAL REPORTS...WYOMING/IDAHO/WASHINGTON

CITY           SKY/WX    TMP DP  RH WIND       PRES   REMARKS
GILLETTE       CLOUDY    43  30  60 S17       29.87R
SHERIDAN       CLOUDY    43  35  73 N6        29.84R
BUFFALO WY     CLOUDY    48  24  39 CALM      29.86F
CODY           CLOUDY    47  26  44 W12       29.93R
YELLOWSTONE LA   N/A     30  30 100 CALM      30.04F
IDAHO FALLS    CLOUDY    42  40  92 S15       30.02F
SALMON         CLOUDY    39  30  70 N18       30.02R WCI  30
BOISE          CLOUDY    40  37  89 E5        30.08S
SPOKANE        CLOUDY    38  36  92 S13G18    29.99S WCI  30
$$

REGIONAL REPORTS...ALBERTA

CITY           SKY/WX    TMP DP  RH WIND       PRES   REMARKS
EDMONTON       CLOUDY    30  27  86 CALM      29.67R
CALGARY        PTCLDY    41  19  42 W16       29.68R
LETHBRIDGE     CLEAR     43  25  49 W26G32    29.76R
MEDICINE HAT   CLEAR     41  32  70 SW18G24   29.70R
WATERTON GATE    N/A     37  25  60 SW23G31     N/A  WCI  26
CARDSTON         N/A     41  23  48 W17G24      N/A
MILK RIVER       N/A     37  28  70 W22G28      N/A  WCI  27
$$

REGIONAL REPORTS...SASKATCHEWAN

CITY           SKY/WX    TMP DP  RH WIND       PRES   REMARKS
SWIFT CURRENT  PTCLDY    45  32  61 W17       29.65R
REGINA         LGT RAIN  36  32  87 SE28G33   29.74F WCI  23
SASKATOON      LGT RAIN  36  34  93 SE9       29.68S WCI  29
CYPRESS HILLS    N/A     39  27  60 W17G25      N/A  WCI  30
VAL MARIE        N/A     41  30  65 W9          N/A
ROCKGLEN         N/A     41  34  75 S17         N/A
ASSINIBOIA       N/A     32  30  93 N7          N/A  WCI  26
$$



USA.gov is the U.S. government's official web portal to all federal, state and local government web resources and services.